Oscoda, MI

3:47 PM EST on December 05, 2019 (GMT -0500)
Oscoda-Wurtsmith

Weather History for KOSC - October, 2019

Change the Weather History Date:

Tuesday, October 8, 2019

  Actual Average Record
Temperature  
Mean Temperature 48 °F -  
Max Temperature 63 °F 59 °F 93 °F (2007)
Min Temperature 33 °F 40 °F 29 °F (2012)
Degree Days  
Heating Degree Days 17    
Moisture  
Dew Point 40 °F    
Average Humidity 77    
Maximum Humidity 96    
Minimum Humidity 41    
Precipitation  
Precipitation 0.00 in - - ()
Sea Level Pressure  
Sea Level Pressure 30.26 in    
Wind  
Wind Speed 2 mph (SE)    
Max Wind Speed 10 mph    
Max Gust Speed -    
Visibility 10 miles    
Events      
Averages and records for this station are not official NWS values.
T = Trace of Precipitation, MM = Missing Value Source: NWS Daily Summary

Daily Weather History Graph

Daily Weather History Graph

Search for Another Location

Airport or City:

Astronomy

Oct. 08, 2019 Rise Set
Actual Time 7:39 AM EDT 7:01 PM EDT
Civil Twilight 7:10 AM EDT 7:30 PM EDT
Nautical Twilight 6:36 AM EDT 8:04 PM EDT
Astronomical Twilight 6:02 AM EDT 8:38 PM EDT
Moon 5:14 PM EDT (10/8) 2:12 AM EDT (10/8)
Length of Visible Light 12h 20m
Length of Day
11h 22m
Waxing Gibbous, 77% of the Moon is Illuminated
Oct 8
Waxing Gibbous
Oct 13
Full
Oct 21
Last Quarter
Oct 27
New
Nov 4
First Quarter

Hourly Weather History & Observations

Time (EDT) Temp. Windchill Dew Point Humidity Pressure Visibility Wind Dir Wind Speed Gust Speed Precip Events Conditions
12:18 AM 40.5 °F - 35.6 °F 83% 30.22 in 10.0 mi Calm Calm - N/A   Clear
12:36 AM 39.2 °F 37.0 °F 35.1 °F 85% 30.22 in 10.0 mi SW 3.5 mph - N/A   Clear
12:55 AM 39.4 °F - 35.8 °F 87% 30.23 in 10.0 mi Calm Calm - N/A   Clear
1:15 AM 38.5 °F - 35.6 °F 89% 30.23 in 10.0 mi Calm Calm - N/A   Clear
1:16 AM 38.7 °F - 35.8 °F 89% 30.23 in 10.0 mi Calm Calm - N/A   Clear
1:39 AM 38.7 °F - 36.1 °F 91% 30.23 in 10.0 mi Calm Calm - N/A   Clear
1:57 AM 37.2 °F - 34.5 °F 90% 30.23 in 10.0 mi Calm Calm - N/A   Clear
2:15 AM 36.7 °F - 33.6 °F 89% 30.23 in 10.0 mi Calm Calm - N/A   Clear
2:35 AM 36.3 °F - 33.3 °F 89% 30.23 in 10.0 mi Calm Calm - N/A   Clear
2:36 AM 36.3 °F - 33.1 °F 88% 30.24 in 10.0 mi Calm Calm - N/A   Clear
2:55 AM 36.0 °F - 33.3 °F 90% 30.24 in 10.0 mi Calm Calm - N/A   Clear
3:00 AM 35.4 °F - 32.5 °F 89% 30.24 in 10.0 mi Calm Calm - N/A   Clear
3:18 AM 36.7 °F - 34.9 °F 93% 30.23 in 10.0 mi Calm Calm - N/A   Clear
3:36 AM 37.2 °F - 33.8 °F 87% 30.23 in 10.0 mi Calm Calm - N/A   Clear
3:55 AM 35.2 °F - 32.0 °F 88% 30.24 in 10.0 mi Calm Calm - N/A   Clear
3:56 AM 35.2 °F - 32.0 °F 88% 30.24 in 10.0 mi Calm Calm - N/A   Clear
4:15 AM 35.8 °F - 32.0 °F 86% 30.24 in 10.0 mi Calm Calm - N/A   Clear
4:16 AM 35.6 °F - 32.0 °F 87% 30.25 in 10.0 mi Calm Calm - N/A   Clear
4:39 AM 34.0 °F - 31.6 °F 91% 30.25 in 10.0 mi Calm Calm - N/A   Clear
4:57 AM 34.2 °F - 31.8 °F 91% 30.26 in 10.0 mi Calm Calm - N/A   Clear
5:15 AM 35.6 °F - 32.9 °F 90% 30.26 in 10.0 mi Calm Calm - N/A   Clear
5:16 AM 35.2 °F - 32.4 °F 89% 30.26 in 10.0 mi Calm Calm - N/A   Clear
5:35 AM 34.7 °F - 32.0 °F 90% 30.26 in 10.0 mi Calm Calm - N/A   Clear
5:36 AM 34.7 °F - 32.0 °F 90% 30.26 in 10.0 mi Calm Calm - N/A   Clear
5:55 AM 33.8 °F - 31.5 °F 91% 30.27 in 10.0 mi Calm Calm - N/A   Clear
6:18 AM 34.0 °F - 31.8 °F 92% 30.28 in 10.0 mi Calm Calm - N/A   Clear
6:36 AM 33.1 °F - 32.2 °F 96% 30.28 in 0.8 mi Calm Calm - N/A   Mostly Cloudy
6:55 AM 33.4 °F - 32.4 °F 96% 30.28 in 10.0 mi Calm Calm - N/A   Mostly Cloudy
6:56 AM 33.4 °F - 32.4 °F 96% 30.28 in 10.0 mi Calm Calm - N/A   Mostly Cloudy
7:15 AM 34.2 °F - 32.7 °F 94% 30.28 in 10.0 mi Calm Calm - N/A   Scattered Clouds
7:39 AM 33.3 °F - 31.6 °F 94% 30.29 in 10.0 mi Calm Calm - N/A   Clear
7:57 AM 33.1 °F - 31.1 °F 92% 30.29 in 10.0 mi Calm Calm - N/A   Clear
8:16 AM 34.3 °F - 32.0 °F 91% 30.29 in 10.0 mi Calm Calm - N/A   Clear
8:35 AM 36.5 °F - 33.3 °F 88% 30.30 in 10.0 mi Calm Calm - N/A   Clear
8:55 AM 40.5 °F - 37.9 °F 91% 30.30 in 10.0 mi Calm Calm - N/A   Clear
9:18 AM 43.7 °F - 40.3 °F 88% 30.30 in 10.0 mi Calm Calm - N/A   Clear
9:36 AM 46.9 °F - 43.0 °F 86% 30.31 in 10.0 mi Calm Calm - N/A   Clear
9:55 AM 51.8 °F - 46.2 °F 81% 30.31 in 10.0 mi Calm Calm - N/A   Clear
10:15 AM 55.8 °F - 47.7 °F 74% 30.31 in 10.0 mi SSW 4.6 mph - N/A   Clear
10:39 AM 58.5 °F - 46.8 °F 65% 30.31 in 10.0 mi South 4.6 mph - N/A   Clear
10:57 AM 59.5 °F - 45.1 °F 59% 30.31 in 10.0 mi SSE 4.6 mph - N/A   Clear
11:15 AM 60.3 °F - 44.2 °F 55% 30.31 in 10.0 mi SSW 6.9 mph - N/A   Clear
11:35 AM 61.2 °F - 43.9 °F 53% 30.31 in 10.0 mi SSE 5.8 mph - N/A   Clear
11:55 AM 62.1 °F - 42.8 °F 49% 30.31 in 10.0 mi SSW 8.1 mph - N/A   Clear
12:00 PM 62.2 °F - 43.3 °F 50% 30.31 in 10.0 mi South 6.9 mph - N/A   Clear
12:18 PM 62.2 °F - 43.2 °F 50% 30.30 in 10.0 mi South 8.1 mph - N/A   Clear
12:36 PM 62.6 °F - 44.4 °F 51% 30.30 in 10.0 mi SSE 9.2 mph - N/A   Scattered Clouds
12:55 PM 62.6 °F - 44.2 °F 51% 30.30 in 10.0 mi SE 8.1 mph - N/A   Scattered Clouds
1:15 PM 62.6 °F - 38.7 °F 41% 30.30 in 10.0 mi SE 9.2 mph - N/A   Scattered Clouds
1:16 PM 62.6 °F - 38.5 °F 41% 30.30 in 10.0 mi SE 9.2 mph - N/A   Scattered Clouds
1:39 PM 63.0 °F - 41.2 °F 45% 30.29 in 10.0 mi SE 6.9 mph - N/A   Clear
1:57 PM 63.5 °F - 43.7 °F 48% 30.29 in 10.0 mi SSE 4.6 mph - N/A   Clear
2:15 PM 63.5 °F - 44.6 °F 50% 30.28 in 10.0 mi South 5.8 mph - N/A   Clear
2:16 PM 63.5 °F - 44.8 °F 51% 30.28 in 10.0 mi SSE 4.6 mph - N/A   Clear
2:35 PM 63.5 °F - 46.6 °F 54% 30.27 in 10.0 mi East 9.2 mph - N/A   Clear
2:36 PM 63.7 °F - 46.6 °F 54% 30.27 in 10.0 mi ESE 9.2 mph - N/A   Clear
2:55 PM 63.1 °F - 46.4 °F 54% 30.27 in 10.0 mi ESE 10.4 mph - N/A   Clear
3:18 PM 62.1 °F - 46.8 °F 57% 30.27 in 10.0 mi ESE 9.2 mph - N/A   Clear
3:36 PM 61.7 °F - 46.8 °F 58% 30.26 in 10.0 mi ESE 9.2 mph - N/A   Clear
3:55 PM 61.7 °F - 46.8 °F 58% 30.26 in 10.0 mi East 9.2 mph - N/A   Clear
3:56 PM 61.5 °F - 46.8 °F 58% 30.26 in 10.0 mi East 8.1 mph - N/A   Clear
4:15 PM 61.2 °F - 46.4 °F 58% 30.26 in 10.0 mi ESE 9.2 mph - N/A   Clear
4:39 PM 60.8 °F - 46.4 °F 59% 30.26 in 10.0 mi ESE 6.9 mph - N/A   Clear
4:57 PM 60.3 °F - 46.2 °F 60% 30.26 in 10.0 mi East 8.1 mph - N/A   Clear
5:15 PM 59.9 °F - 46.6 °F 61% 30.25 in 10.0 mi ESE 8.1 mph - N/A   Clear
5:16 PM 59.9 °F - 46.6 °F 61% 30.25 in 10.0 mi ESE 8.1 mph - N/A   Clear
5:35 PM 59.5 °F - 46.4 °F 62% 30.25 in 10.0 mi East 8.1 mph - N/A   Clear
5:55 PM 59.0 °F - 47.3 °F 65% 30.25 in 10.0 mi ESE 6.9 mph - N/A   Clear
6:18 PM 58.6 °F - 47.8 °F 67% 30.25 in 10.0 mi ESE 5.8 mph - N/A   Clear
6:36 PM 58.1 °F - 47.7 °F 68% 30.25 in 10.0 mi ESE 5.8 mph - N/A   Clear
6:55 PM 57.2 °F - 48.2 °F 72% 30.24 in 10.0 mi ESE 4.6 mph - N/A   Clear
7:15 PM 56.5 °F - 48.2 °F 74% 30.24 in 10.0 mi ESE 4.6 mph - N/A   Clear
7:39 PM 56.3 °F - 48.2 °F 74% 30.24 in 10.0 mi East 4.6 mph - N/A   Clear
7:57 PM 53.8 °F - 47.3 °F 79% 30.24 in 10.0 mi Calm Calm - N/A   Clear
8:15 PM 47.5 °F - 43.3 °F 86% 30.24 in 10.0 mi Calm Calm - N/A   Clear
8:35 PM 47.3 °F - 44.2 °F 89% 30.25 in 10.0 mi Calm Calm - N/A   Clear
8:55 PM 47.3 °F - 45.5 °F 93% 30.25 in 10.0 mi Calm Calm - N/A   Clear
9:00 PM 46.6 °F - 43.9 °F 90% 30.25 in 10.0 mi Calm Calm - N/A   Clear
9:18 PM 45.3 °F - 42.6 °F 90% 30.25 in 10.0 mi Calm Calm - N/A   Clear
9:36 PM 44.8 °F - 41.5 °F 88% 30.25 in 10.0 mi Calm Calm - N/A   Clear
9:55 PM 43.7 °F - 41.0 °F 90% 30.25 in 10.0 mi Calm Calm - N/A   Clear
10:15 PM 43.9 °F - 40.8 °F 89% 30.24 in 10.0 mi Calm Calm - N/A   Clear
10:39 PM 43.0 °F - 40.3 °F 90% 30.24 in 10.0 mi Calm Calm - N/A   Clear
10:57 PM 43.0 °F - 40.5 °F 91% 30.24 in 10.0 mi Calm Calm - N/A   Clear
11:15 PM 40.3 °F - 38.1 °F 92% 30.24 in 7.0 mi Calm Calm - N/A   Mostly Cloudy
11:35 PM 42.3 °F - 40.3 °F 93% 30.24 in 10.0 mi Calm Calm - N/A   Overcast
11:36 PM 42.1 °F - 39.7 °F 91% 30.24 in 10.0 mi Calm Calm - N/A   Overcast
11:55 PM 41.5 °F - 39.9 °F 94% 30.23 in 10.0 mi Calm Calm - N/A   Overcast